EZY64JW EGCC-EKCH

Flight info

Callsign EZY64JW
Flight time 1h 25m
Altitude 37000
Route SONEX L975 DESIG L603 LAMIX UT29 LIBSO UL975 ERDOW DCT GIGUL DCT LARGA DCT SOPTO DCT DOREV DCT TESPI
Aircraft A320/M-SDE3FGHIRWY/LB1

Departure

Time 2026-04-26 18:19
Airport Manchester Airport (EGCC)

Arrival

Time 2026-04-26 19:45
Airport Copenhagen Kastrup Airport (EKCH)
Time Latitude Longitude Altitude Speed Heading
2026-04-26 17:38 53.36891 -2.28789 255 ft 0 kts 135°
2026-04-26 18:01 53.36903 -2.28808 255 ft 4 kts 135°
2026-04-26 18:01 53.36917 -2.28833 255 ft 4 kts 158°
2026-04-26 18:01 53.36935 -2.28827 255 ft 3 kts 225°
2026-04-26 18:01 53.36952 -2.28798 255 ft 2 kts 225°
2026-04-26 18:02 53.36953 -2.28796 255 ft 0 kts 225°
2026-04-26 18:06 53.36944 -2.28813 255 ft 3 kts 227°
2026-04-26 18:06 53.36939 -2.28839 255 ft 3 kts 254°
2026-04-26 18:06 53.36929 -2.28897 255 ft 7 kts 254°
2026-04-26 18:06 53.36907 -2.28970 255 ft 6 kts 224°
2026-04-26 18:07 53.36903 -2.28975 255 ft 0 kts 221°
2026-04-26 18:07 53.36897 -2.28984 255 ft 4 kts 221°
2026-04-26 18:08 53.36837 -2.29070 255 ft 12 kts 212°
2026-04-26 18:08 53.36761 -2.29118 255 ft 10 kts 193°
2026-04-26 18:08 53.36710 -2.29066 255 ft 8 kts 133°
2026-04-26 18:08 53.36681 -2.29016 255 ft 4 kts 135°
2026-04-26 18:09 53.36663 -2.28987 255 ft 3 kts 135°
2026-04-26 18:09 53.36655 -2.28974 255 ft 1 kts 135°
2026-04-26 18:09 53.36644 -2.28955 255 ft 3 kts 133°
2026-04-26 18:09 53.36634 -2.28914 255 ft 6 kts 108°
2026-04-26 18:10 53.36615 -2.28859 255 ft 5 kts 127°
2026-04-26 18:10 53.36591 -2.28803 255 ft 7 kts 123°
2026-04-26 18:10 53.36557 -2.28722 255 ft 8 kts 129°
2026-04-26 18:10 53.36518 -2.28653 255 ft 9 kts 134°
2026-04-26 18:11 53.36468 -2.28567 255 ft 11 kts 134°
2026-04-26 18:11 53.36415 -2.28457 255 ft 13 kts 115°
2026-04-26 18:11 53.36370 -2.28327 255 ft 13 kts 135°
2026-04-26 18:11 53.36304 -2.28214 255 ft 14 kts 135°
2026-04-26 18:12 53.36231 -2.28093 255 ft 15 kts 135°
2026-04-26 18:12 53.36150 -2.27961 255 ft 17 kts 140°
2026-04-26 18:12 53.36105 -2.27903 255 ft 6 kts 143°
2026-04-26 18:12 53.36090 -2.27885 255 ft 0 kts 143°
2026-04-26 18:13 53.36083 -2.27876 255 ft 2 kts 143°
2026-04-26 18:13 53.36075 -2.27868 255 ft 3 kts 156°
2026-04-26 18:13 53.36032 -2.27903 255 ft 11 kts 214°
2026-04-26 18:13 53.35982 -2.27889 255 ft 12 kts 148°
2026-04-26 18:14 53.35876 -2.27844 254 ft 13 kts 168°
2026-04-26 18:14 53.35807 -2.27723 251 ft 16 kts 130°
2026-04-26 18:14 53.35703 -2.27623 247 ft 20 kts 160°
2026-04-26 18:14 53.35620 -2.27502 245 ft 14 kts 107°
2026-04-26 18:15 53.35657 -2.27378 251 ft 10 kts 51°
2026-04-26 18:15 53.35699 -2.27291 255 ft 13 kts 51°
2026-04-26 18:15 53.35771 -2.27141 255 ft 18 kts 51°
2026-04-26 18:15 53.35838 -2.26975 256 ft 17 kts 60°
2026-04-26 18:16 53.35906 -2.26821 256 ft 16 kts 54°
2026-04-26 18:16 53.36022 -2.26566 256 ft 12 kts 51°
2026-04-26 18:16 53.36073 -2.26462 256 ft 11 kts 51°
2026-04-26 18:17 53.36119 -2.26364 255 ft 13 kts 51°
2026-04-26 18:17 53.36195 -2.26242 255 ft 16 kts 37°
2026-04-26 18:17 53.36264 -2.26111 255 ft 14 kts 57°
2026-04-26 18:17 53.36271 -2.25989 255 ft 9 kts 83°
2026-04-26 18:18 53.36288 -2.25860 256 ft 12 kts 94°
2026-04-26 18:18 53.36261 -2.25769 260 ft 6 kts 132°
2026-04-26 18:18 53.36221 -2.25750 260 ft 8 kts 209°
2026-04-26 18:18 53.36201 -2.25784 259 ft 3 kts 230°
2026-04-26 18:19 53.36157 -2.25874 259 ft 31 kts 231°
2026-04-26 18:19 53.35854 -2.26505 270 ft 103 kts 231°
2026-04-26 18:19 53.35274 -2.27697 263 ft 157 kts 231°
2026-04-26 18:19 53.34572 -2.29122 895 ft 159 kts 230°
2026-04-26 18:20 53.33860 -2.30575 1533 ft 167 kts 230°
2026-04-26 18:20 53.33095 -2.32184 1914 ft 187 kts 231°
2026-04-26 18:20 53.32309 -2.34084 2241 ft 212 kts 244°
2026-04-26 18:20 53.32114 -2.34870 2380 ft 221 kts 251°
2026-04-26 18:21 53.32212 -2.39417 3335 ft 255 kts 292°
2026-04-26 18:21 53.33264 -2.41836 4243 ft 263 kts 318°
2026-04-26 18:21 53.34889 -2.43222 5222 ft 267 kts 346°
2026-04-26 18:21 53.36754 -2.43272 6104 ft 275 kts 11°
2026-04-26 18:22 53.38501 -2.41938 6947 ft 282 kts 38°
2026-04-26 18:22 53.39744 -2.39388 7773 ft 287 kts 63°
2026-04-26 18:22 53.40619 -2.36367 8650 ft 290 kts 65°
2026-04-26 18:22 53.41489 -2.33299 9534 ft 293 kts 65°
2026-04-26 18:23 53.42367 -2.30184 10370 ft 298 kts 65°
2026-04-26 18:23 53.43277 -2.26945 10766 ft 319 kts 65°
2026-04-26 18:23 53.44260 -2.23462 11049 ft 340 kts 65°
2026-04-26 18:23 53.45293 -2.19821 11662 ft 349 kts 64°
2026-04-26 18:24 53.46347 -2.16120 12405 ft 353 kts 64°
2026-04-26 18:24 53.47416 -2.12369 13165 ft 357 kts 64°
2026-04-26 18:24 53.48489 -2.08593 13913 ft 361 kts 64°
2026-04-26 18:24 53.49574 -2.04757 14558 ft 365 kts 64°
2026-04-26 18:25 53.50672 -2.00868 15180 ft 370 kts 64°
2026-04-26 18:25 53.51628 -1.96841 15822 ft 373 kts 74°
2026-04-26 18:25 53.52140 -1.92551 16447 ft 376 kts 85°
2026-04-26 18:25 53.52185 -1.88148 17079 ft 378 kts 96°
2026-04-26 18:26 53.51758 -1.83775 17707 ft 380 kts 107°
2026-04-26 18:26 53.51010 -1.79502 18336 ft 383 kts 109°
2026-04-26 18:26 53.50245 -1.75195 18893 ft 386 kts 109°
2026-04-26 18:26 53.49478 -1.70860 19402 ft 390 kts 109°
2026-04-26 18:27 53.48703 -1.66468 19894 ft 394 kts 109°
2026-04-26 18:27 53.47920 -1.62029 20378 ft 398 kts 108°
2026-04-26 18:27 53.47137 -1.57599 20854 ft 402 kts 108°
2026-04-26 18:27 53.46335 -1.53099 21329 ft 406 kts 108°
2026-04-26 18:28 53.45517 -1.48528 21802 ft 410 kts 108°
2026-04-26 18:28 53.44691 -1.43930 22273 ft 414 kts 108°
2026-04-26 18:28 53.43855 -1.39284 22735 ft 418 kts 108°
2026-04-26 18:28 53.43006 -1.34593 23189 ft 422 kts 108°
2026-04-26 18:29 53.42149 -1.29872 23633 ft 425 kts 108°
2026-04-26 18:29 53.41566 -1.26656 23910 ft 428 kts 108°
2026-04-26 18:29 53.40695 -1.21860 24287 ft 431 kts 108°
2026-04-26 18:29 53.39999 -1.17022 24670 ft 436 kts 97°
2026-04-26 18:30 53.40052 -1.11941 25031 ft 440 kts 80°
2026-04-26 18:30 53.40991 -1.06991 25388 ft 442 kts 62°
2026-04-26 18:30 53.42629 -1.02627 25739 ft 444 kts 54°
2026-04-26 18:30 53.44359 -0.98399 26102 ft 447 kts 54°
2026-04-26 18:31 53.46124 -0.94087 26461 ft 449 kts 54°
2026-04-26 18:31 53.47889 -0.89748 26820 ft 452 kts 54°
2026-04-26 18:31 53.49650 -0.85352 27172 ft 455 kts 56°
2026-04-26 18:31 53.51341 -0.80836 27531 ft 458 kts 58°
2026-04-26 18:32 53.52958 -0.76214 27874 ft 461 kts 59°
2026-04-26 18:32 53.54541 -0.71504 28217 ft 463 kts 59°
2026-04-26 18:32 53.56118 -0.66755 28556 ft 466 kts 59°
2026-04-26 18:32 53.57712 -0.61984 28884 ft 469 kts 59°
2026-04-26 18:33 53.59331 -0.57196 29206 ft 471 kts 59°
2026-04-26 18:33 53.60974 -0.52411 29516 ft 474 kts 58°
2026-04-26 18:33 53.62660 -0.47551 29820 ft 476 kts 58°
2026-04-26 18:33 53.64342 -0.42715 30115 ft 479 kts 58°
2026-04-26 18:34 53.66022 -0.37857 30397 ft 481 kts 58°
2026-04-26 18:34 53.67703 -0.32964 30645 ft 483 kts 59°
2026-04-26 18:34 53.69386 -0.28039 30901 ft 485 kts 59°
2026-04-26 18:34 53.71049 -0.23155 31130 ft 487 kts 59°
2026-04-26 18:35 53.72734 -0.18177 31433 ft 488 kts 59°
2026-04-26 18:35 53.74419 -0.13188 31791 ft 488 kts 59°
2026-04-26 18:35 53.76107 -0.08196 32081 ft 489 kts 59°
2026-04-26 18:35 53.77799 -0.03206 32386 ft 489 kts 59°
2026-04-26 18:36 53.79493 0.01791 32726 ft 489 kts 58°
2026-04-26 18:36 53.81179 0.06782 33061 ft 489 kts 58°
2026-04-26 18:36 53.82859 0.11786 33395 ft 489 kts 58°
2026-04-26 18:36 53.84533 0.16793 33727 ft 488 kts 58°
2026-04-26 18:37 53.86204 0.21796 34063 ft 488 kts 58°
2026-04-26 18:37 53.87875 0.26806 34382 ft 488 kts 58°
2026-04-26 18:37 53.89543 0.31802 34691 ft 487 kts 58°
2026-04-26 18:37 53.91209 0.36795 35011 ft 486 kts 58°
2026-04-26 18:38 53.92868 0.41782 35312 ft 485 kts 58°
2026-04-26 18:38 53.94518 0.46757 35616 ft 484 kts 58°
2026-04-26 18:38 53.96166 0.51733 35909 ft 482 kts 59°
2026-04-26 18:38 53.97806 0.56699 36203 ft 481 kts 58°
2026-04-26 18:39 53.99434 0.61650 36531 ft 479 kts 58°
2026-04-26 18:39 54.01059 0.66608 36794 ft 479 kts 58°
2026-04-26 18:39 54.02673 0.71552 37028 ft 478 kts 59°
2026-04-26 18:39 54.04285 0.76494 37249 ft 478 kts 59°
2026-04-26 18:40 54.07509 0.86378 37314 ft 476 kts 59°
2026-04-26 18:40 54.10700 0.96190 37313 ft 476 kts 59°
2026-04-26 18:41 54.13898 1.06080 37313 ft 476 kts 58°
2026-04-26 18:41 54.17083 1.15968 37316 ft 475 kts 59°
2026-04-26 18:42 54.20258 1.25857 37322 ft 475 kts 59°
2026-04-26 18:42 54.23421 1.35751 37323 ft 475 kts 59°
2026-04-26 18:43 54.26577 1.45676 37341 ft 475 kts 59°
2026-04-26 18:43 54.29738 1.55633 37331 ft 476 kts 59°
2026-04-26 18:44 54.32889 1.65619 37336 ft 476 kts 59°
2026-04-26 18:44 54.36033 1.75611 37342 ft 476 kts 59°
2026-04-26 18:45 54.39173 1.85608 37342 ft 476 kts 59°
2026-04-26 18:45 54.42295 1.95621 37344 ft 476 kts 59°
2026-04-26 18:46 54.45414 2.05670 37341 ft 476 kts 59°
2026-04-26 18:46 54.48502 2.15663 37366 ft 476 kts 59°
2026-04-26 18:47 54.51614 2.25757 37358 ft 476 kts 59°
2026-04-26 18:47 54.54703 2.35852 37357 ft 476 kts 59°
2026-04-26 18:48 54.57765 2.45893 37354 ft 476 kts 59°
2026-04-26 18:48 54.60840 2.56010 37350 ft 476 kts 59°
2026-04-26 18:49 54.63919 2.66138 37350 ft 476 kts 59°
2026-04-26 18:49 54.66982 2.76280 37353 ft 476 kts 59°
2026-04-26 18:50 54.70024 2.86452 37354 ft 476 kts 59°
2026-04-26 18:50 54.73036 2.96562 37373 ft 476 kts 59°
2026-04-26 18:51 54.76078 3.06765 37365 ft 477 kts 59°
2026-04-26 18:51 54.79113 3.16982 37358 ft 477 kts 59°
2026-04-26 18:52 54.82139 3.27231 37368 ft 477 kts 59°
2026-04-26 18:52 54.85145 3.37486 37370 ft 477 kts 59°
2026-04-26 18:53 54.88122 3.47685 37368 ft 476 kts 59°
2026-04-26 18:53 54.91112 3.57957 37364 ft 476 kts 59°
2026-04-26 18:54 54.94097 3.68230 37361 ft 476 kts 59°
2026-04-26 18:54 54.97074 3.78523 37377 ft 476 kts 59°
2026-04-26 18:55 55.00043 3.88843 37376 ft 476 kts 59°
2026-04-26 18:55 55.02990 3.99163 37374 ft 476 kts 60°
2026-04-26 18:56 55.05908 4.09511 37371 ft 475 kts 60°
2026-04-26 18:56 55.08778 4.19908 37366 ft 475 kts 60°
2026-04-26 18:57 55.11154 4.28548 37362 ft 475 kts 60°
2026-04-26 18:57 55.14500 4.40711 37370 ft 475 kts 60°
2026-04-26 18:58 55.17336 4.51067 37373 ft 474 kts 60°
2026-04-26 18:58 55.20175 4.61483 37385 ft 474 kts 61°
2026-04-26 18:59 55.23009 4.71914 37378 ft 473 kts 61°
2026-04-26 18:59 55.25835 4.82351 37374 ft 473 kts 61°
2026-04-26 19:00 55.28639 4.92793 37367 ft 473 kts 61°
2026-04-26 19:00 55.30899 5.03587 37362 ft 479 kts 76°
2026-04-26 19:01 55.32040 5.15137 37362 ft 480 kts 78°
2026-04-26 19:01 55.33177 5.26679 37362 ft 480 kts 77°
2026-04-26 19:02 55.34307 5.38237 37357 ft 480 kts 78°
2026-04-26 19:02 55.35229 5.47867 37357 ft 480 kts 78°
2026-04-26 19:03 55.36504 5.61395 37370 ft 480 kts 78°
2026-04-26 19:03 55.37568 5.72900 37367 ft 480 kts 78°
2026-04-26 19:04 55.38631 5.84485 37372 ft 480 kts 78°
2026-04-26 19:04 55.39698 5.96083 37359 ft 480 kts 78°
2026-04-26 19:05 55.41284 6.13485 37371 ft 480 kts 78°
2026-04-26 19:06 55.42317 6.25091 37369 ft 480 kts 78°
2026-04-26 19:06 55.43328 6.36700 37364 ft 479 kts 78°
2026-04-26 19:07 55.44330 6.48302 37365 ft 479 kts 78°
2026-04-26 19:07 55.45326 6.59825 37362 ft 479 kts 78°
2026-04-26 19:08 55.46319 6.71439 37365 ft 479 kts 78°
2026-04-26 19:08 55.47293 6.83028 37365 ft 478 kts 78°
2026-04-26 19:09 55.48274 6.94605 37359 ft 477 kts 78°
2026-04-26 19:09 55.49243 7.06178 37351 ft 477 kts 78°
2026-04-26 19:10 55.50196 7.17762 37350 ft 477 kts 79°
2026-04-26 19:10 55.51138 7.29342 37360 ft 477 kts 78°
2026-04-26 19:11 55.52072 7.40914 37358 ft 476 kts 79°
2026-04-26 19:11 55.52980 7.52410 37354 ft 476 kts 79°
2026-04-26 19:12 55.53886 7.63974 37346 ft 476 kts 79°
2026-04-26 19:12 55.54780 7.75544 37352 ft 476 kts 79°
2026-04-26 19:13 55.55658 7.87125 37356 ft 475 kts 79°
2026-04-26 19:13 55.56533 7.98696 37347 ft 475 kts 79°
2026-04-26 19:14 55.57397 8.10263 37340 ft 475 kts 79°
2026-04-26 19:14 55.58254 8.21843 37335 ft 475 kts 79°
2026-04-26 19:15 55.59091 8.33417 37339 ft 475 kts 79°
2026-04-26 19:15 55.59910 8.44922 37336 ft 475 kts 79°
2026-04-26 19:16 55.60722 8.56500 37326 ft 474 kts 79°
2026-04-26 19:16 55.61527 8.68074 37323 ft 474 kts 79°
2026-04-26 19:17 55.62320 8.79662 37308 ft 474 kts 79°
2026-04-26 19:17 55.63110 8.91245 37305 ft 474 kts 79°
2026-04-26 19:18 55.63890 9.02839 37315 ft 474 kts 79°
2026-04-26 19:18 55.64645 9.14433 37310 ft 474 kts 79°
2026-04-26 19:19 55.65386 9.26034 37308 ft 474 kts 79°
2026-04-26 19:19 55.66120 9.37628 37313 ft 474 kts 79°
2026-04-26 19:19 55.66491 9.43437 37212 ft 475 kts 79°
2026-04-26 19:20 55.66740 9.47357 37027 ft 474 kts 79°
2026-04-26 19:20 55.66982 9.51196 36809 ft 474 kts 79°
2026-04-26 19:20 55.67466 9.58990 35754 ft 478 kts 80°
2026-04-26 19:20 55.67823 9.64804 34810 ft 485 kts 80°
2026-04-26 19:21 55.68188 9.70784 33832 ft 490 kts 80°
2026-04-26 19:21 55.68556 9.76810 32756 ft 495 kts 80°
2026-04-26 19:21 55.68917 9.82863 32163 ft 490 kts 81°
2026-04-26 19:21 55.69266 9.88841 31495 ft 486 kts 81°
2026-04-26 19:22 55.69608 9.94781 30832 ft 483 kts 81°
2026-04-26 19:22 55.69948 10.00690 30146 ft 479 kts 81°
2026-04-26 19:22 55.70283 10.06530 29480 ft 474 kts 81°
2026-04-26 19:22 55.70612 10.12311 28849 ft 468 kts 81°
2026-04-26 19:23 55.70934 10.18024 28221 ft 464 kts 81°
2026-04-26 19:23 55.71252 10.23682 27611 ft 459 kts 81°
2026-04-26 19:23 55.71567 10.29291 27006 ft 454 kts 80°
2026-04-26 19:23 55.71878 10.34840 26419 ft 450 kts 80°
2026-04-26 19:24 55.72184 10.40329 25836 ft 446 kts 80°
2026-04-26 19:24 55.72482 10.45774 25285 ft 441 kts 81°
2026-04-26 19:24 55.73051 10.56490 24255 ft 431 kts 81°
2026-04-26 19:25 55.73330 10.61758 23737 ft 426 kts 80°
2026-04-26 19:25 55.73516 10.65283 23378 ft 422 kts 80°
2026-04-26 19:25 55.73874 10.72082 22758 ft 414 kts 81°
2026-04-26 19:25 55.74137 10.77135 22290 ft 409 kts 80°
2026-04-26 19:26 55.74396 10.82134 21823 ft 404 kts 81°
2026-04-26 19:26 55.74648 10.87073 21347 ft 400 kts 81°
2026-04-26 19:26 55.74895 10.91968 20880 ft 397 kts 81°
2026-04-26 19:26 55.75139 10.96834 20402 ft 394 kts 81°
2026-04-26 19:27 55.75380 11.01667 19928 ft 392 kts 81°
2026-04-26 19:27 55.75619 11.06472 19440 ft 390 kts 81°
2026-04-26 19:27 55.75857 11.11255 18969 ft 388 kts 81°
2026-04-26 19:27 55.76092 11.16020 18481 ft 387 kts 81°
2026-04-26 19:28 55.76321 11.20767 17970 ft 385 kts 81°
2026-04-26 19:28 55.76540 11.25437 17805 ft 373 kts 81°
2026-04-26 19:28 55.76747 11.29966 17682 ft 362 kts 81°
2026-04-26 19:28 55.76947 11.34356 17543 ft 351 kts 81°
2026-04-26 19:29 55.77143 11.38638 17266 ft 346 kts 81°
2026-04-26 19:29 55.77321 11.42884 16941 ft 344 kts 84°
2026-04-26 19:29 55.77159 11.47148 16498 ft 350 kts 94°
2026-04-26 19:29 55.76824 11.51428 16093 ft 350 kts 94°
2026-04-26 19:30 55.76487 11.55694 15739 ft 348 kts 94°
2026-04-26 19:30 55.76154 11.59892 15391 ft 347 kts 94°
2026-04-26 19:30 55.75814 11.64121 15058 ft 345 kts 94°
2026-04-26 19:30 55.75584 11.66960 14834 ft 344 kts 94°
2026-04-26 19:31 55.75131 11.72493 14298 ft 339 kts 94°
2026-04-26 19:31 55.74796 11.76625 13692 ft 337 kts 94°
2026-04-26 19:31 55.74467 11.80742 13321 ft 334 kts 94°
2026-04-26 19:31 55.74142 11.84789 13259 ft 330 kts 94°
2026-04-26 19:32 55.73813 11.88819 13270 ft 330 kts 94°
2026-04-26 19:32 55.73482 11.92839 12873 ft 331 kts 94°
2026-04-26 19:32 55.73148 11.96883 12414 ft 328 kts 94°
2026-04-26 19:32 55.72816 12.00871 11832 ft 325 kts 94°
2026-04-26 19:33 55.72488 12.04804 11377 ft 319 kts 94°
2026-04-26 19:33 55.72165 12.08667 10875 ft 314 kts 94°
2026-04-26 19:33 55.71845 12.12479 10364 ft 310 kts 94°
2026-04-26 19:33 55.71530 12.16243 9820 ft 307 kts 94°
2026-04-26 19:34 55.71226 12.19976 9246 ft 303 kts 94°
2026-04-26 19:34 55.70941 12.23652 8676 ft 299 kts 94°
2026-04-26 19:34 55.70673 12.27276 8128 ft 294 kts 94°
2026-04-26 19:34 55.70423 12.30855 7586 ft 290 kts 94°
2026-04-26 19:35 55.70191 12.34393 7132 ft 287 kts 94°
2026-04-26 19:35 55.69885 12.37868 6678 ft 285 kts 108°
2026-04-26 19:35 55.68876 12.40839 6311 ft 281 kts 136°
2026-04-26 19:35 55.67245 12.42657 5857 ft 278 kts 165°
2026-04-26 19:36 55.65362 12.42922 5436 ft 270 kts 194°
2026-04-26 19:36 55.64174 12.42335 5150 ft 267 kts 203°
2026-04-26 19:36 55.61858 12.40772 4587 ft 265 kts 205°
2026-04-26 19:36 55.60273 12.39222 4199 ft 257 kts 221°
2026-04-26 19:37 55.58919 12.37188 3995 ft 254 kts 225°
2026-04-26 19:37 55.57597 12.35102 4013 ft 255 kts 225°
2026-04-26 19:37 55.56279 12.32996 4014 ft 255 kts 225°
2026-04-26 19:37 55.54960 12.30892 4013 ft 255 kts 225°
2026-04-26 19:38 55.53659 12.28809 3998 ft 245 kts 225°
2026-04-26 19:38 55.52426 12.26846 3878 ft 233 kts 225°
2026-04-26 19:38 55.51248 12.24980 3747 ft 222 kts 225°
2026-04-26 19:38 55.50036 12.23449 3615 ft 216 kts 204°
2026-04-26 19:39 55.48561 12.23266 3487 ft 216 kts 167°
2026-04-26 19:39 55.47281 12.24622 3359 ft 219 kts 134°
2026-04-26 19:39 55.46330 12.26735 3228 ft 221 kts 126°
2026-04-26 19:39 55.45505 12.29016 3108 ft 221 kts 111°
2026-04-26 19:40 55.45331 12.31662 3014 ft 219 kts 82°
2026-04-26 19:40 55.45591 12.34300 3006 ft 218 kts 76°
2026-04-26 19:40 55.45916 12.36914 3007 ft 219 kts 75°
2026-04-26 19:40 55.46253 12.39529 3010 ft 219 kts 75°
2026-04-26 19:41 55.46848 12.41946 2993 ft 214 kts 45°
2026-04-26 19:41 55.48001 12.43521 2977 ft 210 kts 28°
2026-04-26 19:41 55.49215 12.44978 2846 ft 212 kts 34°
2026-04-26 19:41 55.49957 12.46106 2720 ft 213 kts 38°
2026-04-26 19:42 55.51459 12.48419 2303 ft 217 kts 36°
2026-04-26 19:42 55.52648 12.50075 1943 ft 218 kts 34°
2026-04-26 19:42 55.53800 12.51730 1677 ft 207 kts 42°
2026-04-26 19:42 55.54756 12.53513 1408 ft 193 kts 43°
2026-04-26 19:43 55.55712 12.55014 1191 ft 176 kts 37°
2026-04-26 19:43 55.56652 12.56361 842 ft 171 kts 39°
2026-04-26 19:43 55.57526 12.57731 558 ft 166 kts 40°
2026-04-26 19:43 55.58383 12.59051 267 ft 160 kts 43°
2026-04-26 19:44 55.59191 12.60297 89 ft 150 kts 42°
2026-04-26 19:44 55.59938 12.61459 27 ft 131 kts 41°
2026-04-26 19:44 55.60523 12.62366 25 ft 98 kts 41°
2026-04-26 19:44 55.60963 12.63046 24 ft 72 kts 41°
2026-04-26 19:45 55.61161 12.63328 28 ft 19 kts 11°
2026-04-26 19:45 55.61287 12.63314 27 ft 14 kts 357°
2026-04-26 19:45 55.61382 12.63323 24 ft 13 kts 22°
2026-04-26 19:45 55.61452 12.63419 24 ft 12 kts 41°
2026-04-26 19:46 55.61524 12.63530 24 ft 16 kts 41°
2026-04-26 19:46 55.61620 12.63679 25 ft 20 kts 41°
2026-04-26 19:46 55.61733 12.63854 24 ft 23 kts 41°
2026-04-26 19:46 55.61858 12.64046 24 ft 24 kts 40°
2026-04-26 19:47 55.61970 12.64152 25 ft 18 kts 26°
2026-04-26 19:47 55.62048 12.64218 24 ft 19 kts 25°
2026-04-26 19:47 55.62210 12.64353 21 ft 19 kts 25°
2026-04-26 19:47 55.62273 12.64482 23 ft 13 kts 67°
2026-04-26 19:48 55.62307 12.64622 26 ft 12 kts 66°
2026-04-26 19:48 55.62339 12.64749 25 ft 11 kts 66°
2026-04-26 19:48 55.62352 12.64871 24 ft 10 kts 106°
2026-04-26 19:48 55.62313 12.64983 24 ft 11 kts 125°
2026-04-26 19:49 55.62274 12.65111 24 ft 12 kts 98°
2026-04-26 19:49 55.62322 12.65203 24 ft 11 kts
2026-04-26 19:49 55.62400 12.65202 25 ft 11 kts 359°
2026-04-26 19:49 55.62442 12.65276 24 ft 9 kts 89°
2026-04-26 19:50 55.62441 12.65382 24 ft 8 kts 88°
2026-04-26 19:50 55.62477 12.65443 26 ft 5 kts 22°
2026-04-26 19:50 55.62505 12.65463 24 ft 2 kts 22°
2026-04-26 19:50 55.62514 12.65470 24 ft 1 kts 23°
2026-04-26 19:51 55.62515 12.65471 24 ft 0 kts 23°